Weather History for Oakes, ND

Change the Weather History Date:

Friday, November 2, 2012

  Actual Average (KABR) Record (KABR)
Temperature  
Mean Temperature 28 °F 37 °F  
Max Temperature 32 °F 48 °F 77 °F (1931)
Min Temperature 24 °F 26 °F 0 °F (1911)
Degree Days  
Heating Degree Days 37 28  
Month to date heating degree days 56  
Since 1 July heating degree days 947  
Cooling Degree Days 0 0  
Month to date cooling degree days 0  
Year to date cooling degree days 525  
Moisture  
Dew Point 26 °F    
Average Humidity 87    
Maximum Humidity 100    
Minimum Humidity 80    
Precipitation  
Precipitation 0.00 in 0.03 in 1.30 in (1896)
Month to date precipitation 0.06  
Year to date precipitation 20.53  
Snow  
Snow 0.00 in - - ()
Month to date snowfall  
Since 1 July snowfall  
Snow Depth -    
Sea Level Pressure  
Sea Level Pressure 30.10 in    
Wind  
Wind Speed 9 mph (East)    
Max Wind Speed 13 mph    
Max Gust Speed -    
Visibility 10 miles    
Events      
T = Trace of Precipitation, MM = Missing Value Source: NWS Daily Summary

Daily Weather History Graph

Daily Weather History Graph

Search for Another Location

Airport:

Trip Planner

Search our weather history database for the weather conditions in past years. The results will help you decide how hot, cold, wet, or windy it might be!

Date:

Astronomy

Nov. 02, 2012 Rise Set
Actual Time 8:15 AM CDT 6:15 PM CDT
Civil Twilight 7:43 AM CDT 6:47 PM CDT
Nautical Twilight 7:08 AM CDT 7:22 PM CDT
Astronomical Twilight 6:33 AM CDT 7:57 PM CDT
Moon 8:57 PM CDT (11/2) 11:44 AM CDT (11/2)
Length of Visible Light 11h 03m
Length of Day
10h 00m
Waning Gibbous, 87% of the Moon is Illuminated
Nov 2
Waning Gibbous
Nov 6
Last Quarter
Nov 13
New
Nov 20
First Quarter
Nov 28
Full

Hourly Weather History & Observations

Time (CDT) Temp. Windchill Dew Point Humidity Pressure Visibility Wind Dir Wind Speed Gust Speed Precip Events Conditions
12:15 AM 24.8 °F 19.1 °F 24.8 °F 100% 30.08 in 10.0 mi NNE 4.6 mph - N/A   Unknown
12:35 AM 24.8 °F 17.9 °F 24.8 °F 100% 30.07 in 10.0 mi NE 5.8 mph - N/A   Unknown
12:55 AM 26.6 °F 19.1 °F 24.8 °F 93% 30.08 in 10.0 mi NE 6.9 mph - N/A   Unknown
1:15 AM 26.6 °F 19.1 °F 24.8 °F 93% 30.06 in 10.0 mi NE 6.9 mph - N/A   Unknown
1:35 AM 26.6 °F 17.5 °F 24.8 °F 93% 30.06 in 10.0 mi NE 9.2 mph - N/A   Unknown
1:55 AM 26.6 °F 16.8 °F 24.8 °F 93% 30.06 in 10.0 mi NE 10.4 mph - N/A   Unknown
2:15 AM 26.6 °F 17.5 °F 24.8 °F 93% 30.06 in 10.0 mi NE 9.2 mph - N/A   Unknown
2:35 AM 26.6 °F 17.5 °F 24.8 °F 93% 30.06 in 10.0 mi NE 9.2 mph - N/A   Unknown
2:55 AM 26.6 °F 18.2 °F 24.8 °F 93% 30.07 in 10.0 mi NE 8.1 mph - N/A   Unknown
3:15 AM 26.6 °F 16.8 °F 24.8 °F 93% 30.07 in 10.0 mi NE 10.4 mph - N/A   Unknown
3:35 AM 26.6 °F 16.8 °F 24.8 °F 93% 30.07 in 10.0 mi NE 10.4 mph - N/A   Unknown
3:55 AM 28.4 °F 18.5 °F 24.8 °F 86% 30.06 in 10.0 mi NE 11.5 mph - N/A   Unknown
4:15 AM 26.6 °F 16.8 °F 24.8 °F 93% 30.06 in 10.0 mi NE 10.4 mph - N/A   Unknown
4:35 AM 26.6 °F 16.2 °F 24.8 °F 93% 30.06 in 10.0 mi ENE 11.5 mph - N/A   Unknown
4:55 AM 26.6 °F 16.8 °F 24.8 °F 93% 30.06 in 10.0 mi NE 10.4 mph - N/A   Unknown
5:15 AM 26.6 °F 17.5 °F 24.8 °F 93% 30.07 in 10.0 mi NE 9.2 mph - N/A   Mostly Cloudy
5:35 AM 26.6 °F 16.8 °F 24.8 °F 93% 30.07 in 10.0 mi NE 10.4 mph - N/A   Partly Cloudy
5:55 AM 28.4 °F 18.5 °F 24.8 °F 86% 30.07 in 10.0 mi NE 11.5 mph - N/A   Clear
6:15 AM 28.4 °F 18.5 °F 24.8 °F 86% 30.08 in 10.0 mi ENE 11.5 mph - N/A   Partly Cloudy
6:35 AM 26.6 °F 16.8 °F 24.8 °F 93% 30.08 in 10.0 mi ENE 10.4 mph - N/A   Partly Cloudy
6:55 AM 26.6 °F 17.5 °F 24.8 °F 93% 30.09 in 10.0 mi ENE 9.2 mph - N/A   Clear
7:15 AM 26.6 °F 16.2 °F 24.8 °F 93% 30.08 in 10.0 mi ENE 11.5 mph - N/A   Unknown
7:35 AM 26.6 °F 16.8 °F 24.8 °F 93% 30.09 in 10.0 mi ENE 10.4 mph - N/A   Unknown
7:55 AM 28.4 °F 18.5 °F 24.8 °F 86% 30.09 in 10.0 mi ENE 11.5 mph - N/A   Unknown
8:15 AM 28.4 °F 19.7 °F 24.8 °F 86% 30.10 in 10.0 mi ENE 9.2 mph - N/A   Unknown
8:35 AM 28.4 °F 19.1 °F 26.6 °F 93% 30.10 in 10.0 mi ENE 10.4 mph - N/A   Unknown
8:55 AM 28.4 °F 19.7 °F 26.6 °F 93% 30.11 in 10.0 mi ENE 9.2 mph - N/A   Unknown
9:15 AM 28.4 °F 18.5 °F 26.6 °F 93% 30.11 in 10.0 mi East 11.5 mph - N/A   Unknown
9:35 AM 28.4 °F 19.1 °F 26.6 °F 93% 30.12 in 10.0 mi ENE 10.4 mph - N/A   Unknown
9:55 AM 28.4 °F 19.7 °F 26.6 °F 93% 30.13 in 10.0 mi East 9.2 mph - N/A   Unknown
10:15 AM 28.4 °F 19.7 °F 26.6 °F 93% 30.13 in 10.0 mi East 9.2 mph - N/A   Unknown
10:35 AM 30.2 °F 21.3 °F 26.6 °F 86% 30.13 in 10.0 mi East 10.4 mph - N/A   Unknown
10:55 AM 30.2 °F 21.3 °F 26.6 °F 86% 30.13 in 10.0 mi East 10.4 mph - N/A   Unknown
11:15 AM 30.2 °F 20.2 °F 26.6 °F 86% 30.12 in 10.0 mi East 12.7 mph - N/A   Unknown
11:35 AM 30.2 °F 20.2 °F 26.6 °F 86% 30.12 in 10.0 mi East 12.7 mph - N/A   Unknown
11:55 AM 32.0 °F 22.5 °F 26.6 °F 80% 30.12 in 10.0 mi ESE 12.7 mph - N/A   Unknown
12:15 PM 32.0 °F 23.0 °F 26.6 °F 80% 30.12 in 10.0 mi East 11.5 mph - N/A   Unknown
12:35 PM 32.0 °F 22.5 °F 26.6 °F 80% 30.12 in 10.0 mi ESE 12.7 mph - N/A   Unknown
12:55 PM 32.0 °F 22.5 °F 26.6 °F 80% 30.12 in 10.0 mi ESE 12.7 mph - N/A   Unknown
1:15 PM 32.0 °F 23.0 °F 26.6 °F 80% 30.11 in 10.0 mi East 11.5 mph - N/A   Unknown
1:35 PM 32.0 °F 22.5 °F 26.6 °F 80% 30.11 in 10.0 mi East 12.7 mph - N/A   Unknown
1:55 PM 32.0 °F 23.0 °F 26.6 °F 80% 30.10 in 10.0 mi East 11.5 mph - N/A   Unknown
2:15 PM 32.0 °F 23.6 °F 26.6 °F 80% 30.10 in 10.0 mi East 10.4 mph - N/A   Unknown
2:35 PM 32.0 °F 23.0 °F 26.6 °F 80% 30.09 in 10.0 mi East 11.5 mph - N/A   Unknown
2:55 PM 32.0 °F 24.2 °F 26.6 °F 80% 30.10 in 10.0 mi East 9.2 mph - N/A   Unknown
3:15 PM 32.0 °F 23.6 °F 26.6 °F 80% 30.09 in 10.0 mi East 10.4 mph - N/A   Unknown
3:35 PM 32.0 °F 24.8 °F 26.6 °F 80% 30.09 in 10.0 mi East 8.1 mph - N/A   Unknown
3:55 PM 32.0 °F 24.2 °F 26.6 °F 80% 30.09 in 10.0 mi East 9.2 mph - N/A   Unknown
4:15 PM 32.0 °F 23.6 °F 26.6 °F 80% 30.09 in 10.0 mi East 10.4 mph - N/A   Unknown
4:35 PM 32.0 °F 23.6 °F 26.6 °F 80% 30.09 in 10.0 mi East 10.4 mph - N/A   Unknown
4:55 PM 32.0 °F 24.2 °F 26.6 °F 80% 30.09 in 10.0 mi East 9.2 mph - N/A   Unknown
5:15 PM 32.0 °F 23.0 °F 26.6 °F 80% 30.09 in 10.0 mi East 11.5 mph - N/A   Unknown
5:35 PM 32.0 °F 24.2 °F 26.6 °F 80% 30.09 in 10.0 mi East 9.2 mph - N/A   Unknown
5:55 PM 32.0 °F 23.6 °F 26.6 °F 80% 30.09 in 10.0 mi East 10.4 mph - N/A   Unknown
6:15 PM 32.0 °F 24.2 °F 26.6 °F 80% 30.10 in 10.0 mi East 9.2 mph - N/A   Unknown
6:35 PM 32.0 °F 23.6 °F 26.6 °F 80% 30.10 in 10.0 mi East 10.4 mph - N/A   Unknown
6:55 PM 32.0 °F 23.6 °F 26.6 °F 80% 30.10 in 10.0 mi East 10.4 mph - N/A   Unknown
7:15 PM 32.0 °F 24.2 °F 28.4 °F 87% 30.11 in 10.0 mi East 9.2 mph - N/A   Unknown
7:35 PM 32.0 °F 24.2 °F 28.4 °F 87% 30.11 in 10.0 mi East 9.2 mph - N/A   Unknown
7:55 PM 32.0 °F 24.8 °F 28.4 °F 87% 30.12 in 10.0 mi ESE 8.1 mph - N/A   Unknown
8:15 PM 32.0 °F 24.8 °F 28.4 °F 87% 30.12 in 10.0 mi ESE 8.1 mph - N/A   Unknown
8:35 PM 32.0 °F 23.6 °F 28.4 °F 87% 30.11 in 10.0 mi East 10.4 mph - N/A   Unknown
8:55 PM 32.0 °F 23.6 °F 28.4 °F 87% 30.12 in 10.0 mi East 10.4 mph - N/A   Unknown
9:15 PM 32.0 °F 23.6 °F 28.4 °F 87% 30.11 in 10.0 mi East 10.4 mph - N/A   Unknown
9:35 PM 32.0 °F 23.6 °F 28.4 °F 87% 30.12 in 10.0 mi ESE 10.4 mph - N/A   Unknown
9:55 PM 32.0 °F 23.6 °F 28.4 °F 87% 30.12 in 10.0 mi ESE 10.4 mph - N/A   Unknown
10:15 PM 32.0 °F 24.2 °F 28.4 °F 87% 30.13 in 10.0 mi ESE 9.2 mph - N/A   Unknown
10:35 PM 32.0 °F 24.8 °F 28.4 °F 87% 30.13 in 10.0 mi East 8.1 mph - N/A   Unknown
10:55 PM 32.0 °F 24.8 °F 28.4 °F 87% 30.13 in 10.0 mi East 8.1 mph - N/A   Unknown
11:15 PM 32.0 °F 24.8 °F 28.4 °F 87% 30.13 in 10.0 mi East 8.1 mph - N/A   Unknown
11:35 PM 32.0 °F 24.8 °F 28.4 °F 87% 30.13 in 10.0 mi ESE 8.1 mph - N/A   Unknown
11:55 PM 32.0 °F 25.6 °F 28.4 °F 87% 30.13 in 10.0 mi ESE 6.9 mph - N/A   Unknown